User: anonymous   Login
Location: Borea
(45.6167°N, 23.0167°E)
Time: 23:38:35
(UTC+00:00)
Language:

CZ-4B R/B - Orbit

View from above orbital plane
View from above orbital plane
View from above satellite
View from above satellite

Ground track
Ground track

The orbit data is extracted from the following two-line orbital elements,

1 33410U 08053C   23156.57755963  .00005341  00000-0  33238-3 0  9996
2 33410  97.9157 175.7938 0122210  84.2293 277.2850 15.03965251797187
Epoch (UTC): 05 June 2023 13:51:41
Eccentricity: 0.0122210
inclination: 97.9157°
perigee height: 470 km
apogee height: 639 km
right ascension of ascending node: 175.7938°
argument of perigee: 84.2293°
revolutions per day: 15.03965251
mean anomaly at epoch: 277.2850°
orbit number at epoch: 79718

The dashed part of the orbit path shows where the satellite is in the earth's shadow,  

DLR